This is the latest recevied weather packets stored in our database for station/object NQ9F. If no packets are shown the sender has not sent any weather packets the latest 10 day(s).
| Time | Temp. | Humidity | Pressure | Rain* | Wind** | Luminosity | Snow |
|---|---|---|---|---|---|---|---|
| 1777386062 | 25° C | 92% | 1012.1 hPa | 0 mm | - | 219 W/m² | - |
| 1777385757 | 25° C | 92% | 1012.1 hPa | 0 mm | - | 173 W/m² | - |
| 1777385455 | 24.44° C | 93% | 1011.8 hPa | 0 mm | - | 166 W/m² | - |
| 1777384847 | 24.44° C | 93% | 1011.6 hPa | 0 mm | - | 114 W/m² | - |
| 1777383328 | 24.44° C | 93% | 1011.5 hPa | 0 mm | - | 52 W/m² | - |
| 1777383024 | 24.44° C | 94% | 1011.4 hPa | 0 mm | - | 54 W/m² | - |
| 1777382410 | 24.44° C | 93% | 1011.3 hPa | 0 mm | - | 48 W/m² | - |
| 1777381496 | 24.44° C | 93% | 1011.4 hPa | 0 mm | - | 57 W/m² | - |
| 1777381193 | 24.44° C | 93% | 1011.2 hPa | 0 mm | - | 55 W/m² | - |
| 1777379676 | 24.44° C | 92% | 1011.3 hPa | 0 mm | - | 41 W/m² | - |
| 1777379371 | 24.44° C | 91% | 1011.3 hPa | 0 mm | - | 21 W/m² | - |
| 1777378761 | 24.44° C | 91% | 1011 hPa | 0 mm | - | 11 W/m² | - |
| 1777378155 | 24.44° C | 92% | 1010.9 hPa | 0 mm | - | 7 W/m² | - |
| 1777377852 | 24.44° C | 92% | 1010.8 hPa | 0 mm | - | 5 W/m² | - |
| 1777377547 | 24.44° C | 92% | 1010.7 hPa | 0 mm | - | 4 W/m² | - |
| 1777376940 | 24.44° C | 92% | 1010.9 hPa | 0 mm | - | 1 W/m² | - |
| 1777375729 | 24.44° C | 93% | 1010.2 hPa | 0 mm | - | 0 W/m² | - |
| 1777372695 | 24.44° C | 94% | 1010.2 hPa | 0 mm | - | 0 W/m² | - |
| 1777372394 | 24.44° C | 93% | 1010 hPa | 0 mm | - | 0 W/m² | - |
| 1777372092 | 24.44° C | 93% | 1009.9 hPa | 0 mm | - | 0 W/m² | - |
| 1777371788 | 24.44° C | 94% | 1009.9 hPa | 0 mm | - | 0 W/m² | - |
| 1777371485 | 24.44° C | 94% | 1009.8 hPa | 0 mm | - | 0 W/m² | - |
| 1777371181 | 24.44° C | 94% | 1010 hPa | 0 mm | - | 0 W/m² | - |
| 1777370877 | 24.44° C | 94% | 1009.7 hPa | 0 mm | - | 0 W/m² | - |
| 1777370574 | 24.44° C | 94% | 1009.6 hPa | 0 mm | - | 0 W/m² | - |
* Rain latest hour (hover to see other rain measurements)
** Current wind speed in m/s (hover to see current wind gust speed)